SPOT 7

Last updated on Sat Apr 13 2024 01:02:24 GMT+0100 (British Summer Time)

1 40053U 14034A 24103.50980448 .00000665 00000+0 15074-3 0 9998 2 40053 98.1628 171.4023 0001351 110.3959 249.7386 14.59211536521019
UTC large
Height (km)
Speed (km/s)
/
Latitude / Longitude
Inclination (degrees)
Orbital Period (minutes)
Azimuth
Elevation
Range (km)
Doppler Factor

Next 0 passes for location: London (51.5072 / 0.1276)

Sorry there are no passes over London.